time, Switch, Flow(0), Analog(2)
yyyy/mm/dd HH:MM:SS.fff, True=FILTERED|False=TOTAL, L/min, V
2023/06/15 10:00:02.964, True, 4.380, 0.142519
2023/06/15 10:00:03.469, True, 3.980, 0.143969
2023/06/15 10:00:03.972, True, 3.647, 0.141985
2023/06/15 10:00:04.468, True, 2.359, 0.141833
2023/06/15 10:00:04.972, True, 1.326, 0.142901
2023/06/15 10:00:05.476, True, 0.995, 0.140917
2023/06/15 10:00:05.972, True, 0.674, 0.144121
2023/06/15 10:00:06.477, True, 0.332, 0.141680
2023/06/15 10:00:06.980, True, 0.663, 0.141451
2023/06/15 10:00:07.476, True, 0.337, 0.144045
2023/06/15 10:00:07.981, True, 0.332, 0.145190
2023/06/15 10:00:08.485, True, 0.663, 0.142519
2023/06/15 10:00:08.980, True, 0.337, 0.142901
2023/06/15 10:00:09.484, True, 0.332, 0.145190
2023/06/15 10:00:09.980, True, 0.674, 0.144350
2023/06/15 10:00:10.484, True, 0.332, 0.141527
2023/06/15 10:00:10.989, True, 0.332, 0.139696
2023/06/15 10:00:11.492, True, 0.663, 0.142519
2023/06/15 10:00:11.989, True, 0.337, 0.144274
2023/06/15 10:00:12.492, True, 0.663, 0.143130
2023/06/15 10:00:12.996, True, 0.332, 0.142977
2023/06/15 10:00:13.492, True, 0.337, 0.143130
2023/06/15 10:00:13.997, True, 0.663, 0.142061
2023/06/15 10:00:14.492, True, 0.337, 0.144732
2023/06/15 10:00:14.996, True, 0.332, 0.141222
2023/06/15 10:00:15.500, True, 0.664, 0.141604
2023/06/15 10:00:15.997, True, 0.337, 0.142977
2023/06/15 10:00:16.500, True, 0.332, 0.142977
2023/06/15 10:00:17.004, True, 0.663, 0.143282
2023/06/15 10:00:17.501, True, 0.337, 0.143893
2023/06/15 10:00:18.004, True, 0.663, 0.144656
2023/06/15 10:00:18.508, True, 0.331, 0.142367
2023/06/15 10:00:19.004, True, 0.337, 0.143130
2023/06/15 10:00:19.508, True, 0.663, 0.143282
2023/06/15 10:00:20.011, True, 0.332, 0.142519
2023/06/15 10:00:20.508, True, 0.337, 0.141222
2023/06/15 10:00:21.012, True, 0.663, 0.143282
2023/06/15 10:00:21.516, True, 0.332, 0.144198
2023/06/15 10:00:22.012, True, 0.337, 0.143969
2023/06/15 10:00:22.516, True, 0.332, 0.143816
2023/06/15 10:00:23.020, True, 0.664, 0.143053
2023/06/15 10:00:23.516, True, 0.337, 0.142367
2023/06/15 10:00:24.020, True, 0.331, 0.142672
2023/06/15 10:00:24.524, True, 0.664, 0.141451
2023/06/15 10:00:25.020, True, 0.337, 0.141527
2023/06/15 10:00:25.524, True, 0.331, 0.140917
2023/06/15 10:00:26.028, True, 0.332, 0.143816
2023/06/15 10:00:26.524, True, 0.675, 0.142977
2023/06/15 10:00:27.028, True, 0.331, 0.144121
2023/06/15 10:00:27.532, True, 0.331, 0.144045
2023/06/15 10:00:28.028, True, 0.675, 0.142748
2023/06/15 10:00:28.532, True, 0.332, 0.141604
2023/06/15 10:00:29.036, True, 0.331, 0.142901
2023/06/15 10:00:29.532, True, 0.674, 0.143053
2023/06/15 10:00:30.036, True, 0.332, 0.143130
2023/06/15 10:00:30.540, True, 0.331, 0.143664
2023/06/15 10:00:31.036, True, 0.674, 0.142138
2023/06/15 10:00:31.540, True, 0.331, 0.142672
2023/06/15 10:00:32.044, True, 0.332, 0.142672
2023/06/15 10:00:32.540, True, 0.673, 0.142290
2023/06/15 10:00:33.044, True, 0.332, 0.142519
2023/06/15 10:00:33.548, True, 0.331, 0.142977
2023/06/15 10:00:34.044, True, 0.674, 0.141222
2023/06/15 10:00:34.548, True, 0.332, 0.142596
2023/06/15 10:00:35.052, True, 0.331, 0.144198
2023/06/15 10:00:35.548, True, 0.674, 0.141680
2023/06/15 10:00:36.052, True, 0.332, 0.144808
2023/06/15 10:00:36.548, True, 0.337, 0.140307
2023/06/15 10:00:37.052, True, 0.663, 0.143893
2023/06/15 10:00:37.556, True, 0.332, 0.142138
2023/06/15 10:00:38.052, True, 0.336, 0.142519
2023/06/15 10:00:38.556, True, 0.663, 0.142596
2023/06/15 10:00:39.060, True, 0.331, 0.144732
2023/06/15 10:00:39.556, True, 0.337, 0.142061
2023/06/15 10:00:40.060, True, 0.332, 0.143206
2023/06/15 10:00:40.564, True, 0.663, 0.143969
2023/06/15 10:00:41.060, True, 0.337, 0.142977
2023/06/15 10:00:41.564, True, 0.332, 0.141833
2023/06/15 10:00:42.068, True, 0.664, 0.141527
2023/06/15 10:00:42.564, True, 0.337, 0.142519
2023/06/15 10:00:43.068, True, 0.332, 0.142443
2023/06/15 10:00:43.571, True, 0.662, 0.143282
2023/06/15 10:00:44.068, True, 0.337, 0.142672
2023/06/15 10:00:44.572, True, 0.332, 0.141222
2023/06/15 10:00:45.076, True, 0.332, 0.142214
2023/06/15 10:00:45.572, True, 0.337, 0.141604
2023/06/15 10:00:46.076, True, 0.663, 0.141909
2023/06/15 10:00:46.580, True, 0.332, 0.142214
2023/06/15 10:00:47.076, True, 0.337, 0.142596
2023/06/15 10:00:47.580, True, 0.663, 0.140230
2023/06/15 10:00:48.076, True, 0.337, 0.141299
2023/06/15 10:00:48.580, True, 0.663, 0.142672
2023/06/15 10:00:49.084, True, 0.332, 0.142748
2023/06/15 10:00:49.580, True, 0.337, 0.141833
2023/06/15 10:00:50.084, True, 0.662, 0.141604
2023/06/15 10:00:50.588, True, 0.332, 0.143359
2023/06/15 10:00:51.092, True, 0.332, 0.140764
2023/06/15 10:00:51.588, True, 0.674, 0.142672
2023/06/15 10:00:52.092, True, 0.332, 0.142367
2023/06/15 10:00:52.596, True, 0.332, 0.141070
2023/06/15 10:00:53.092, True, 0.337, 0.143359
2023/06/15 10:00:53.596, True, 0.663, 0.142519
2023/06/15 10:00:54.100, True, 0.332, 0.141451
2023/06/15 10:00:54.596, True, 0.337, 0.143206
2023/06/15 10:00:55.100, True, 0.332, 0.143816
2023/06/15 10:00:55.604, True, 0.663, 0.143130
2023/06/15 10:00:56.100, True, 0.337, 0.144579
2023/06/15 10:00:56.604, True, 0.332, 0.142290
2023/06/15 10:00:57.108, True, 0.663, 0.142824
2023/06/15 10:00:57.612, True, 0.332, 0.142748
2023/06/15 10:00:58.108, True, 0.674, 0.141909
2023/06/15 10:00:58.612, True, 0.332, 0.143206
2023/06/15 10:00:59.108, True, 0.337, 0.139925
2023/06/15 10:00:59.612, True, 0.332, 0.142443
2023/06/15 10:01:00.116, True, 0.663, 0.143282
2023/06/15 10:01:00.612, True, 0.337, 0.140154
2023/06/15 10:01:01.116, True, 0.663, 0.142367
2023/06/15 10:01:01.620, True, 0.332, 0.145647
2023/06/15 10:01:02.116, True, 0.338, 0.143053
2023/06/15 10:01:02.620, True, 0.331, 0.143435
2023/06/15 10:01:03.124, True, 0.663, 0.142901
2023/06/15 10:01:03.628, True, 0.332, 0.143130
2023/06/15 10:01:04.124, True, 0.337, 0.143893
2023/06/15 10:01:04.628, True, 0.663, 0.142290
2023/06/15 10:01:05.132, True, 0.331, 0.143359
2023/06/15 10:01:05.628, True, 0.337, 0.140841
2023/06/15 10:01:06.132, True, 0.663, 0.142443
2023/06/15 10:01:06.628, True, 0.337, 0.143740
2023/06/15 10:01:07.132, True, 0.331, 0.143435
2023/06/15 10:01:07.636, True, 0.663, 0.142748
2023/06/15 10:01:08.132, True, 0.337, 0.142061
2023/06/15 10:01:08.636, True, 0.332, 0.141604
2023/06/15 10:01:09.140, True, 0.663, 0.144274
2023/06/15 10:01:09.636, True, 0.337, 0.144732
2023/06/15 10:01:10.140, True, 0.332, 0.141527
2023/06/15 10:01:10.644, True, 0.332, 0.143587
2023/06/15 10:01:11.148, True, 0.663, 0.143282
2023/06/15 10:01:11.644, True, 0.337, 0.143969
2023/06/15 10:01:12.148, True, 0.332, 0.143359
2023/06/15 10:01:12.644, True, 0.337, 0.141909
2023/06/15 10:01:13.148, True, 0.663, 0.143664
2023/06/15 10:01:13.652, True, 0.331, 0.144350
2023/06/15 10:01:14.148, True, 0.337, 0.143206
2023/06/15 10:01:14.652, True, 0.332, 0.143664
2023/06/15 10:01:15.156, True, 0.663, 0.142290
2023/06/15 10:01:15.652, True, 0.337, 0.141375
2023/06/15 10:01:16.156, True, 0.332, 0.142672
2023/06/15 10:01:16.660, True, 0.332, 0.143893
2023/06/15 10:01:17.164, True, 0.663, 0.143893
2023/06/15 10:01:17.660, True, 0.338, 0.144732
2023/06/15 10:01:18.164, True, 0.331, 0.143282
2023/06/15 10:01:18.668, True, 0.663, 0.140688
2023/06/15 10:01:19.164, True, 0.337, 0.143511
2023/06/15 10:01:19.668, True, 0.332, 0.141299
2023/06/15 10:01:20.172, True, 0.663, 0.143664
2023/06/15 10:01:20.668, True, 0.337, 0.142214
2023/06/15 10:01:21.172, True, 0.332, 0.143740
2023/06/15 10:01:21.676, True, 0.332, 0.141756
2023/06/15 10:01:22.172, True, 0.674, 0.140764
2023/06/15 10:01:22.676, True, 0.332, 0.144808
2023/06/15 10:01:23.172, True, 0.337, 0.141222
2023/06/15 10:01:23.676, True, 0.332, 0.144274
2023/06/15 10:01:24.180, True, 0.663, 0.143893
2023/06/15 10:01:24.676, True, 0.337, 0.144884
2023/06/15 10:01:25.180, True, 0.332, 0.142061
2023/06/15 10:01:25.684, True, 0.663, 0.141985
2023/06/15 10:01:26.188, True, 0.332, 0.143206
2023/06/15 10:01:26.684, True, 0.336, 0.143664
2023/06/15 10:01:27.188, True, 0.332, 0.140078
2023/06/15 10:01:27.692, True, 0.663, 0.142824
2023/06/15 10:01:28.188, True, 0.337, 0.142824
2023/06/15 10:01:28.692, True, 0.331, 0.142901
2023/06/15 10:01:29.196, True, 0.332, 0.143130
2023/06/15 10:01:29.692, True, 0.674, 0.142519
2023/06/15 10:01:30.196, True, 0.332, 0.142290
2023/06/15 10:01:30.700, True, 0.332, 0.141146
2023/06/15 10:01:31.196, True, 0.674, 0.143587
2023/06/15 10:01:31.700, True, 0.332, 0.141451
2023/06/15 10:01:32.204, True, 0.332, 0.141527
2023/06/15 10:01:32.700, True, 0.337, 0.141604
2023/06/15 10:01:33.204, True, 0.664, 0.141604
2023/06/15 10:01:33.708, True, 0.332, 0.140993
2023/06/15 10:01:34.204, True, 0.336, 0.143664
2023/06/15 10:01:34.708, True, 0.332, 0.142824
2023/06/15 10:01:35.212, True, 0.332, 0.142748
2023/06/15 10:01:35.708, True, 0.674, 0.143130
2023/06/15 10:01:36.212, True, 0.332, 0.141146
2023/06/15 10:01:36.716, True, 0.332, 0.143053
2023/06/15 10:01:37.212, True, 0.337, 0.140230
2023/06/15 10:01:37.716, True, 0.663, 0.143816
2023/06/15 10:01:38.220, True, 0.332, 0.141909
2023/06/15 10:01:38.716, True, 0.337, 0.141833
2023/06/15 10:01:39.220, True, 0.332, 0.142214
2023/06/15 10:01:39.724, True, 0.332, 0.144045
2023/06/15 10:01:40.220, True, 0.674, 0.141833
2023/06/15 10:01:40.724, True, 0.332, 0.142596
2023/06/15 10:01:41.228, True, 0.332, 0.142443
2023/06/15 10:01:41.724, True, 0.673, 0.144732
2023/06/15 10:01:42.228, True, 0.332, 0.142596
2023/06/15 10:01:42.732, True, 0.332, 0.142596
2023/06/15 10:01:43.228, True, 0.337, 0.143816
2023/06/15 10:01:43.732, True, 0.332, 0.143130
2023/06/15 10:01:44.236, True, 0.663, 0.142519
2023/06/15 10:01:44.732, True, 0.337, 0.142519
2023/06/15 10:01:45.236, True, 0.332, 0.142443
2023/06/15 10:01:45.740, True, 0.332, 0.142748
2023/06/15 10:01:46.235, True, 0.674, 0.142824
2023/06/15 10:01:46.740, True, 0.332, 0.142672
2023/06/15 10:01:47.243, True, 0.332, 0.141451
2023/06/15 10:01:47.740, True, 0.336, 0.143587
2023/06/15 10:01:48.244, True, 0.663, 0.143053
2023/06/15 10:01:48.748, True, 0.332, 0.142214
2023/06/15 10:01:49.252, True, 0.332, 0.143816
2023/06/15 10:01:49.748, True, 0.337, 0.141451
2023/06/15 10:01:50.252, True, 0.332, 0.143130
2023/06/15 10:01:50.756, True, 0.332, 0.143511
2023/06/15 10:01:51.252, True, 0.674, 0.142290
2023/06/15 10:01:51.755, True, 0.332, 0.138094
2023/06/15 10:01:52.260, True, 0.332, 0.141299
2023/06/15 10:01:52.756, True, 0.336, 0.142901
2023/06/15 10:01:53.259, True, 0.663, 0.143893
2023/06/15 10:01:53.764, True, 0.332, 0.144198
2023/06/15 10:01:54.260, True, 0.337, 0.142138
2023/06/15 10:01:54.764, True, 0.331, 0.144656
2023/06/15 10:01:55.267, True, 0.664, 0.142672
2023/06/15 10:01:55.763, True, 0.337, 0.145724
2023/06/15 10:01:56.268, True, 0.331, 0.143816
2023/06/15 10:01:56.772, True, 0.331, 0.143969
2023/06/15 10:01:57.268, True, 0.675, 0.144732
2023/06/15 10:01:57.772, True, 0.332, 0.144121
2023/06/15 10:01:58.276, True, 0.331, 0.145876
2023/06/15 10:01:58.772, True, 0.338, 0.146334
2023/06/15 10:01:59.276, True, 0.331, 0.145418
2023/06/15 10:01:59.780, True, 0.663, 0.143740
2023/06/15 10:02:00.276, True, 0.337, 0.144808
2023/06/15 10:02:00.780, True, 0.332, 0.144961
2023/06/15 10:02:01.284, True, 0.332, 0.147250
2023/06/15 10:02:01.780, True, 0.336, 0.145266
2023/06/15 10:02:02.284, True, 0.663, 0.146029
2023/06/15 10:02:02.788, True, 0.332, 0.145190
2023/06/15 10:02:03.292, True, 0.332, 0.146334
2023/06/15 10:02:03.788, True, 0.336, 0.144274
2023/06/15 10:02:04.292, True, 0.663, 0.144350
2023/06/15 10:02:04.796, True, 0.332, 0.144350
2023/06/15 10:02:05.292, True, 0.337, 0.145190
2023/06/15 10:02:05.796, True, 0.663, 0.147707
2023/06/15 10:02:06.300, True, 0.332, 0.148165
2023/06/15 10:02:06.795, True, 0.337, 0.147250
2023/06/15 10:02:07.300, True, 0.332, 0.147555
2023/06/15 10:02:07.796, True, 0.674, 0.145876
2023/06/15 10:02:08.300, True, 0.332, 0.145342
2023/06/15 10:02:08.804, True, 0.332, 0.146944
2023/06/15 10:02:09.300, True, 0.337, 0.148470
2023/06/15 10:02:09.804, True, 0.332, 0.146868
2023/06/15 10:02:10.308, True, 0.662, 0.146944
2023/06/15 10:02:10.804, True, 0.337, 0.147326
2023/06/15 10:02:11.308, True, 0.332, 0.146334
2023/06/15 10:02:11.812, True, 0.332, 0.147631
2023/06/15 10:02:12.316, True, 0.332, 0.144045
2023/06/15 10:02:12.812, True, 0.674, 0.147936
2023/06/15 10:02:13.316, True, 0.332, 0.151141
2023/06/15 10:02:13.812, True, 0.337, 0.147478
2023/06/15 10:02:14.316, True, 0.332, 0.149004
2023/06/15 10:02:14.820, True, 0.663, 0.149920
2023/06/15 10:02:15.316, True, 0.337, 0.149920
2023/06/15 10:02:15.820, True, 0.332, 0.150759
2023/06/15 10:02:16.324, True, 0.332, 0.150912
2023/06/15 10:02:16.820, True, 0.337, 0.149844
2023/06/15 10:02:17.323, True, 0.663, 0.146868
2023/06/15 10:02:17.828, True, 0.332, 0.150072
2023/06/15 10:02:18.324, True, 0.337, 0.149386
2023/06/15 10:02:18.828, True, 0.332, 0.148852
2023/06/15 10:02:19.332, True, 0.332, 0.152361
2023/06/15 10:02:19.828, True, 0.674, 0.149004
2023/06/15 10:02:20.332, True, 0.332, 0.149310
2023/06/15 10:02:20.828, True, 0.337, 0.148699
2023/06/15 10:02:21.332, True, 0.332, 0.150683
2023/06/15 10:02:21.836, True, 0.332, 0.150301
2023/06/15 10:02:22.340, True, 0.332, 0.152209
2023/06/15 10:02:22.836, True, 0.337, 0.151446
2023/06/15 10:02:23.340, True, 0.663, 0.149767
2023/06/15 10:02:23.836, True, 0.337, 0.149157
2023/06/15 10:02:24.340, True, 0.332, 0.150835
2023/06/15 10:02:24.844, True, 0.332, 0.152972
2023/06/15 10:02:25.340, True, 0.674, 0.153048
2023/06/15 10:02:25.844, True, 0.332, 0.153887
2023/06/15 10:02:26.348, True, 0.332, 0.150607
2023/06/15 10:02:26.844, True, 0.674, 0.151217
2023/06/15 10:02:27.348, True, 0.332, 0.152209
2023/06/15 10:02:27.844, True, 0.337, 0.151980
2023/06/15 10:02:28.348, True, 0.332, 0.152895
2023/06/15 10:02:28.852, True, 0.332, 0.152590
2023/06/15 10:02:29.348, True, 0.674, 0.152972
2023/06/15 10:02:29.852, True, 0.332, 0.151675
2023/06/15 10:02:30.356, True, 0.332, 0.151980
2023/06/15 10:02:30.852, True, 0.338, 0.153429
2023/06/15 10:02:31.356, True, 0.331, 0.153658
2023/06/15 10:02:31.860, True, 0.663, 0.154116
2023/06/15 10:02:32.356, True, 0.337, 0.152895
2023/06/15 10:02:32.860, True, 0.332, 0.150912
2023/06/15 10:02:33.356, True, 0.337, 0.152056
2023/06/15 10:02:33.860, True, 0.332, 0.152743
2023/06/15 10:02:34.364, True, 0.663, 0.152590
2023/06/15 10:02:34.868, True, 0.332, 0.150683
2023/06/15 10:02:35.364, True, 0.337, 0.152056
2023/06/15 10:02:35.868, True, 0.332, 0.153201
2023/06/15 10:02:36.372, True, 0.663, 0.151141
2023/06/15 10:02:36.868, True, 0.337, 0.153124
2023/06/15 10:02:37.372, True, 0.332, 0.152438
2023/06/15 10:02:37.876, True, 0.332, 0.150988
2023/06/15 10:02:38.372, True, 0.337, 0.152285
2023/06/15 10:02:38.876, True, 0.663, 0.154726
2023/06/15 10:02:39.380, True, 0.332, 0.151446
2023/06/15 10:02:39.876, True, 0.337, 0.154955
2023/06/15 10:02:40.379, True, 0.663, 0.154345
2023/06/15 10:02:40.876, True, 0.337, 0.152285
2023/06/15 10:02:41.380, True, 0.332, 0.153735
2023/06/15 10:02:41.884, True, 0.332, 0.154116
2023/06/15 10:02:42.388, True, 0.663, 0.152056
2023/06/15 10:02:42.884, True, 0.337, 0.153429
2023/06/15 10:02:43.388, True, 0.332, 0.155108
2023/06/15 10:02:43.892, True, 0.332, 0.153048
2023/06/15 10:02:44.388, True, 0.337, 0.153735
2023/06/15 10:02:44.892, True, 0.663, 0.151980
2023/06/15 10:02:45.388, True, 0.337, 0.154269
2023/06/15 10:02:45.892, True, 0.332, 0.154116
2023/06/15 10:02:46.396, True, 0.332, 0.152590
2023/06/15 10:02:46.892, True, 0.337, 0.152361
2023/06/15 10:02:47.395, True, 0.663, 0.152743
2023/06/15 10:02:47.900, True, 0.332, 0.153277
2023/06/15 10:02:48.404, True, 0.332, 0.152285
2023/06/15 10:02:48.900, True, 0.673, 0.153124
2023/06/15 10:02:49.404, True, 0.332, 0.154269
2023/06/15 10:02:49.900, True, 0.337, 0.152438
2023/06/15 10:02:50.404, True, 0.331, 0.153429
2023/06/15 10:02:50.908, True, 0.332, 0.155032
2023/06/15 10:02:51.404, True, 0.673, 0.150988
2023/06/15 10:02:51.908, True, 0.331, 0.152590
2023/06/15 10:02:52.412, True, 0.332, 0.151369
2023/06/15 10:02:52.908, True, 0.337, 0.156329
2023/06/15 10:02:53.412, True, 0.331, 0.153506
2023/06/15 10:02:53.916, True, 0.664, 0.153124
2023/06/15 10:02:54.420, True, 0.332, 0.153048
2023/06/15 10:02:54.916, True, 0.336, 0.152667
2023/06/15 10:02:55.420, True, 0.332, 0.152056
2023/06/15 10:02:55.924, True, 0.663, 0.150759
2023/06/15 10:02:56.420, True, 0.337, 0.153048
2023/06/15 10:02:56.924, True, 0.332, 0.154345
2023/06/15 10:02:57.428, True, 0.331, 0.153353
2023/06/15 10:02:57.923, True, 0.337, 0.153658
2023/06/15 10:02:58.428, True, 0.663, 0.155947
2023/06/15 10:02:58.931, True, 0.332, 0.153506
2023/06/15 10:02:59.427, True, 0.337, 0.153735
2023/06/15 10:02:59.932, True, 0.332, 0.152743
2023/06/15 10:03:00.435, True, 0.332, 0.152590
2023/06/15 10:03:00.932, True, 0.337, 0.152972
2023/06/15 10:03:01.436, True, 0.663, 0.152743
2023/06/15 10:03:01.940, True, 0.332, 0.154650
2023/06/15 10:03:02.444, True, 0.332, 0.152819
2023/06/15 10:03:02.940, True, 0.337, 0.154726
2023/06/15 10:03:03.444, True, 0.332, 0.153658
2023/06/15 10:03:03.939, True, 0.674, 0.153811
2023/06/15 10:03:04.444, True, 0.332, 0.152590
2023/06/15 10:03:04.948, True, 0.332, 0.153811
2023/06/15 10:03:05.452, True, 0.332, 0.152514
2023/06/15 10:03:05.948, True, 0.337, 0.152514
2023/06/15 10:03:06.452, True, 0.332, 0.154192
2023/06/15 10:03:06.956, True, 0.663, 0.154269
2023/06/15 10:03:07.452, True, 0.337, 0.153429
2023/06/15 10:03:07.956, True, 0.332, 0.151904
2023/06/15 10:03:08.460, True, 0.332, 0.156405
2023/06/15 10:03:08.956, True, 0.674, 0.153201
2023/06/15 10:03:09.460, True, 0.332, 0.154269
2023/06/15 10:03:09.956, True, 0.337, 0.154192
2023/06/15 10:03:10.460, True, 0.332, 0.151141
2023/06/15 10:03:10.964, True, 0.663, 0.156863
2023/06/15 10:03:11.460, True, 0.337, 0.153277
2023/06/15 10:03:11.964, True, 0.332, 0.151751
2023/06/15 10:03:12.468, True, 0.332, 0.153429
2023/06/15 10:03:12.964, True, 0.337, 0.152743
2023/06/15 10:03:13.468, True, 0.664, 0.154192
2023/06/15 10:03:13.972, True, 0.331, 0.153964
2023/06/15 10:03:14.468, True, 0.337, 0.154269
2023/06/15 10:03:14.972, True, 0.332, 0.154955
2023/06/15 10:03:15.468, True, 0.337, 0.152895
2023/06/15 10:03:15.972, True, 0.332, 0.154803
2023/06/15 10:03:16.476, True, 0.663, 0.152514
2023/06/15 10:03:16.972, True, 0.337, 0.153887
2023/06/15 10:03:17.475, True, 0.332, 0.154955
2023/06/15 10:03:17.980, True, 0.332, 0.152895
2023/06/15 10:03:18.476, True, 0.338, 0.153201
2023/06/15 10:03:18.980, True, 0.331, 0.154498
2023/06/15 10:03:19.483, True, 0.332, 0.152209
2023/06/15 10:03:19.980, True, 0.674, 0.155261
2023/06/15 10:03:20.483, True, 0.332, 0.153658
2023/06/15 10:03:20.988, True, 0.332, 0.153887
2023/06/15 10:03:21.484, True, 0.337, 0.153277
2023/06/15 10:03:21.987, True, 0.332, 0.153887
2023/06/15 10:03:22.492, True, 0.663, 0.151293
2023/06/15 10:03:22.988, True, 0.337, 0.153201
2023/06/15 10:03:23.492, True, 0.332, 0.151369
2023/06/15 10:03:23.988, True, 0.337, 0.153353
2023/06/15 10:03:24.492, True, 0.332, 0.153506
2023/06/15 10:03:24.996, True, 0.663, 0.153735
2023/06/15 10:03:25.492, True, 0.337, 0.152514
2023/06/15 10:03:25.996, True, 0.332, 0.153964
2023/06/15 10:03:26.500, True, 0.331, 0.152209
2023/06/15 10:03:26.996, True, 0.675, 0.155108
2023/06/15 10:03:27.500, True, 0.331, 0.155261
2023/06/15 10:03:28.004, True, 0.331, 0.151980
2023/06/15 10:03:28.500, True, 0.337, 0.153887
2023/06/15 10:03:29.004, True, 0.332, 0.151980
2023/06/15 10:03:29.508, True, 0.331, 0.151598
2023/06/15 10:03:30.003, True, 0.674, 0.152056
2023/06/15 10:03:30.507, True, 0.332, 0.154574
2023/06/15 10:03:31.012, True, 0.331, 0.149691
2023/06/15 10:03:31.516, True, 0.332, 0.152743
2023/06/15 10:03:32.011, True, 0.337, 0.154726
2023/06/15 10:03:32.516, True, 0.663, 0.153277
2023/06/15 10:03:33.020, True, 0.331, 0.153201
2023/06/15 10:03:33.516, True, 0.337, 0.153811
2023/06/15 10:03:34.020, True, 0.332, 0.151980
2023/06/15 10:03:34.523, True, 0.331, 0.152667
2023/06/15 10:03:35.020, True, 0.674, 0.154574
2023/06/15 10:03:35.524, True, 0.332, 0.151293
2023/06/15 10:03:36.028, True, 0.332, 0.153201
2023/06/15 10:03:36.524, True, 0.337, 0.155337
2023/06/15 10:03:37.028, True, 0.331, 0.153811
2023/06/15 10:03:37.532, True, 0.663, 0.152743
2023/06/15 10:03:38.028, True, 0.337, 0.154879
2023/06/15 10:03:38.532, True, 0.332, 0.152667
2023/06/15 10:03:39.036, True, 0.332, 0.153353
2023/06/15 10:03:39.532, True, 0.337, 0.153582
2023/06/15 10:03:40.036, True, 0.663, 0.154345
2023/06/15 10:03:40.532, True, 0.337, 0.153277
2023/06/15 10:03:41.035, True, 0.332, 0.154650
2023/06/15 10:03:41.540, True, 0.331, 0.153887
2023/06/15 10:03:42.044, True, 0.331, 0.154116
2023/06/15 10:03:42.539, True, 0.337, 0.154955
2023/06/15 10:03:43.044, True, 0.332, 0.154116
2023/06/15 10:03:43.540, True, 0.674, 0.153124
2023/06/15 10:03:44.044, True, 0.331, 0.154650
2023/06/15 10:03:44.548, True, 0.332, 0.153048
2023/06/15 10:03:45.044, True, 0.337, 0.153201
2023/06/15 10:03:45.548, True, 0.332, 0.150607
2023/06/15 10:03:46.052, True, 0.663, 0.150607
2023/06/15 10:03:46.548, True, 0.337, 0.153964
2023/06/15 10:03:47.052, True, 0.332, 0.151751
2023/06/15 10:03:47.556, True, 0.331, 0.152285
2023/06/15 10:03:48.052, True, 0.674, 0.152514
2023/06/15 10:03:48.556, True, 0.332, 0.152819
2023/06/15 10:03:49.059, True, 0.332, 0.152895
2023/06/15 10:03:49.556, True, 0.337, 0.154650
2023/06/15 10:03:50.059, True, 0.332, 0.153811
2023/06/15 10:03:50.564, True, 0.332, 0.153201
2023/06/15 10:03:51.059, True, 0.673, 0.153277
2023/06/15 10:03:51.564, True, 0.332, 0.153353
2023/06/15 10:03:52.067, True, 0.332, 0.153124
2023/06/15 10:03:52.564, True, 0.337, 0.152743
2023/06/15 10:03:53.068, True, 0.332, 0.152972
2023/06/15 10:03:53.572, True, 0.332, 0.152667
2023/06/15 10:03:54.068, True, 0.337, 0.153048
2023/06/15 10:03:54.572, True, 0.663, 0.151827
2023/06/15 10:03:55.068, True, 0.338, 0.151141
2023/06/15 10:03:55.572, True, 0.332, 0.150225
2023/06/15 10:03:56.076, True, 0.332, 0.154040
2023/06/15 10:03:56.572, True, 0.336, 0.154116
2023/06/15 10:03:57.076, True, 0.332, 0.154040
2023/06/15 10:03:57.580, True, 0.663, 0.153811
2023/06/15 10:03:58.076, True, 0.337, 0.152514
2023/06/15 10:03:58.580, True, 0.332, 0.152361
2023/06/15 10:03:59.083, True, 0.332, 0.151446
2023/06/15 10:03:59.580, True, 0.337, 0.153048
2023/06/15 10:04:00.084, True, 0.663, 0.152514
2023/06/15 10:04:00.588, True, 0.332, 0.153429
2023/06/15 10:04:01.084, True, 0.337, 0.152132
2023/06/15 10:04:01.588, True, 0.332, 0.152056
2023/06/15 10:04:02.092, True, 0.663, 0.153964
2023/06/15 10:04:02.588, True, 0.337, 0.152590
2023/06/15 10:04:03.092, True, 0.332, 0.153811
2023/06/15 10:04:03.596, True, 0.332, 0.150988
2023/06/15 10:04:04.092, True, 0.673, 0.152590
2023/06/15 10:04:04.596, True, 0.332, 0.151522
2023/06/15 10:04:05.099, True, 0.332, 0.152132
2023/06/15 10:04:05.596, True, 0.337, 0.152209
2023/06/15 10:04:06.100, True, 0.332, 0.152590
2023/06/15 10:04:06.604, True, 0.332, 0.154803
2023/06/15 10:04:07.099, True, 0.673, 0.151980
2023/06/15 10:04:07.604, True, 0.332, 0.152285
2023/06/15 10:04:08.107, True, 0.332, 0.152132
2023/06/15 10:04:08.612, True, 0.331, 0.153658
2023/06/15 10:04:09.108, True, 0.337, 0.151827
2023/06/15 10:04:09.612, True, 0.664, 0.152132
2023/06/15 10:04:10.108, True, 0.337, 0.154040
2023/06/15 10:04:10.612, True, 0.331, 0.152895
2023/06/15 10:04:11.116, True, 0.332, 0.152438
2023/06/15 10:04:11.612, True, 0.337, 0.152590
2023/06/15 10:04:12.116, True, 0.663, 0.151446